Torna al catalogo

COSMOS 1823 DEB

AttivoLEO
NORAD 39814·DEBRIS·🇷🇺 Russia

Lanciato Feb 20, 1987 da Plesetsk Cosmodrome

Loading…

Prossimi Passaggi (prossime 24 ore)

TLE

ObsoletoSource: Space-Track

Epoca: Sep 4, 2026, 10:14 UTC

1 39814U 87020EN  26247.42666066  .00000014  00000-0  22548-3 0  9998
2 39814  73.6106 274.3000 0025191  70.1805 290.1952 12.43174645555892

Traccia COSMOS 1823 DEB in tempo reale con AllMySat

Download on the App Store